THOR ABLESTAR DEB

Satellite information

Favourite Embed

Satellite Type and Status

DEBRISIN ORBIT

Key statistics

Satellite THOR ABLESTAR DEB at a glance.

Uptime

23490

Days in orbit

Revolutions

≈ 14.0

Per day

Orbit

LEO

Low Earth Orbit

Inclination

66.9

Latest

Satellite identification and parameters

Extended collection of information and parameters for THOR ABLESTAR DEB.

Object identification

Identified? True

Debris? True

Object name: THOR ABLESTAR DEB

International designator: 1961-015FU

Object number (NORAD): 530

Object ID (CCSDS): 530

Country: UNITED STATES OF AMERICA (US)

Current information (Y/N): Y

RCS size: SMALL

Orbital parameters

Period: 102.907 minutes

Inclination: 66.8795 deg

SMA: 7274.299 km

Apoapsis: 955.28 km

Periapsis: 837.048 km

RAAN: 198.0201 deg

Eccentricy: 0.0081267

Argument of periapsis: 337.3581 deg

Mean anomaly: 22.3925 deg

Mean motion: 13.99316779 rev/day

Mean motion (dot): 0.0000031 rev/day2

B* drag term: 0.00025919746 1/REarth

Two-line elements (TLE)

Creation date: Oct. 21, 2025, 3:26 a.m.

Reference frame: TEME

Reference center: EARTH

Epoch: Oct. 20, 2025, 9:57 p.m. UTC

TLE line 0: 0 THOR ABLESTAR DEB

TLE line 1: 1 00530U 61015FU 25293.91482125 .00000310 00000-0 25920-3 0 9999

TLE line 2: 2 00530 66.8795 198.0201 0081267 337.3581 22.3925 13.99316779274142

Live tracking on map

Real-time ground track for satellite THOR ABLESTAR DEB.

In-orbit conjunctions

A list of the most updated potential collisions computed for object THOR ABLESTAR DEB.

Target Orbit TCA Probability of collision Miss distance Type
COSMOS 2251 DEB LEO 2025-06-18 08:45:35 0.0001911329 251.0 (m) DEBRIS
DMSP 5D-2 F13 DEB SSO 2025-01-03 18:08:31 0.0003491262 91.0 (m) DEBRIS
COSMOS 2251 DEB LEO 2024-11-10 14:29:41 0.0006180895 921.0 (m) DEBRIS

Associated space launch

THOR ABLESTAR DEB was lifted into orbit during the mission ‘Thor DM-21 Ablestar | Transit 4A & Injun-1 & Solrad 3’, on board a Thor DM-21 Ablestar space rocket.

The launch took place on June 29, 1961, 4:23 a.m. from Space Launch Complex 17B.

For more information about the launch, click the button.

Launch to space Thor DM-21 Ablestar | Transit 4A & Injun-1 & Solrad 3
Thor DM-21 Ablestar | Transit 4A & Injun-1 & Solrad 3

Agency: N/A

Status: Launch Successful

Launch date: June 29, 1961, 4:23 a.m. UTC

Rocket: Thor DM-21 Ablestar

Launch pad: Space Launch Complex 17B

Location: Cape Canaveral SFS, FL, USA

...

Latest news about this satellite

There are no fresh news available about this satellite. Check back as we update our databases every day.


Newsletter sign-up

Weekly statistics, charts and insights to help you stay on top of the space industry.